Regional Weather Roundup
Issued by NWS

Home | Current Version | Previous Version | Graphics & Text | Print | Product List | Glossary On
Versions: 1 2 3 4 5 6 7 8 9 10 11 12 13 14 15 16 17 18 19 20 21 22 23 24 25 26 27 28 29 30 31 32 33 34 35 36 37 38 39 40 41 42 43 44 45 46 47 48 49 50
000
ASUS43 KLSX 120007
RWRMO

WEATHER SUMMARY FOR MISSOURI
NATIONAL WEATHER SERVICE SPRINGFIELD MO
600 PM CST THU FEB 11 2016

NOTE: "FAIR" INDICATES FEW OR NO CLOUDS BELOW 12,000 FEET WITH NO
       SIGNIFICANT WEATHER AND/OR OBSTRUCTIONS TO VISIBILITY.
       CURRENT SKY AND/OR WEATHER CONDITIONS ARE NOT AVAILABLE FOR
       CHILLICOTHE AND FARMINGTON.

MOZ001>031-035>038-043-044-053-054-120100-
...NORTHERN AND WESTERN MISSOURI...

CITY           SKY/WX    TMP DP  RH WIND       PRES   REMARKS
KANSAS CTY INT CLOUDY    34  21  59 SE7       30.19S WCI  28
6HR MIN TEMP:  30; 6HR MAX TEMP:  36;

KANSAS C DTWN  MOCLDY    36  20  52 SE7       30.19F
6HR MIN TEMP:  33; 6HR MAX TEMP:  38;

LEE`S SUMMIT   CLOUDY    34  20  56 E5        30.20S WCI  30
6HR MIN TEMP:  32; 6HR MAX TEMP:  36;

ST JOSEPH      CLOUDY    34  20  56 SE7       30.19F WCI  28
6HR MIN TEMP:  29; 6HR MAX TEMP:  35;

CHILLICOTHE      N/A     29  16  58 VRB5      30.24F WCI  24
6HR MIN TEMP:  27; 6HR MAX TEMP:  31;

KIRKSVILLE     CLOUDY    23  10  57 E6        30.27S WCI  16
6HR MIN TEMP:  20; 6HR MAX TEMP:  24;


$$
MOZ066>068-077>081-088>096-101>105-120100-
...SOUTHWEST MISSOURI...

CITY           SKY/WX    TMP DP  RH WIND       PRES   REMARKS
SPRINGFIELD    PTCLDY    44  19  36 NE6       30.15R
6HR MIN TEMP:  41; 6HR MAX TEMP:  49;

JOPLIN         PTCLDY    43  23  45 NE5       30.17R
6HR MIN TEMP:  41; 6HR MAX TEMP:  48;


$$
MOZ032>034-039>042-045>050-055>058-069>072-120100-
...CENTRAL MISSOURI...

CITY           SKY/WX    TMP DP  RH WIND       PRES   REMARKS
COLUMBIA       CLOUDY    31  20  63 E8        30.22F WCI  23
6HR MIN TEMP:  29; 6HR MAX TEMP:  35;

JEFFERSON CITY CLOUDY    34  18  52 NE7       30.26R WCI  28
6HR MIN TEMP:  31; 6HR MAX TEMP:  37;

ROLLA          CLOUDY    33  21  61 E7        30.17F WCI  27
6HR MIN TEMP:  31; 6HR MAX TEMP:  36;

SEDALIA        CLOUDY    35  19  52 E7        30.21F WCI  29
6HR MIN TEMP:  33; 6HR MAX TEMP:  38;

WHITEMAN AFB   MOCLDY    34  19  54 E3        30.20S
WARRENSBURG    CLOUDY    34  21  60 NE3       30.22R
OSAGE BEACH    MOCLDY    37  19  48 E6        30.21R

$$
MOZ051-052-059>065-120100-
...EAST CENTRAL MISSOURI...

CITY           SKY/WX    TMP DP  RH WIND       PRES   REMARKS
ST LOUIS INTL  CLOUDY    29   7  39 E9        30.30S WCI  20
6HR MIN TEMP:  26; 6HR MAX TEMP:  32;

SPIRIT OF STL  CLOUDY    29  13  51 NE8       30.28F WCI  21
6HR MIN TEMP:  27; 6HR MAX TEMP:  32;

ST CHARLES     CLOUDY    26  11  52 NE6       30.30S WCI  19
6HR MIN TEMP:  26; 6HR MAX TEMP:  30;


$$
MOZ072>076-082>087-097>100-106>115-120100-
...SOUTH CENTRAL AND SOUTHEAST MISSOURI...

CITY           SKY/WX    TMP DP  RH WIND       PRES   REMARKS
CAPE GIRARDEAU PTCLDY    34  21  59 NE9       30.30R WCI  27
6HR MIN TEMP:  33; 6HR MAX TEMP:  39;

FARMINGTON     MOCLDY    29  19  66 E9        30.26F WCI  20
6HR MIN TEMP:  29; 6HR MAX TEMP:  35;

POPLAR BLUFF   CLOUDY    36  23  59 NE8       30.28R WCI  30
6HR MIN TEMP:  36; 6HR MAX TEMP:  41;

WEST PLAINS    CLOUDY    43  18  36 SE5       30.20F
6HR MIN TEMP:  39; 6HR MAX TEMP:  46;


$$


USA.gov is the U.S. government's official web portal to all federal, state and local government web resources and services.